#timestamp,LO_Frequency,Hit,StdDev 
1628798415.6,286047002.4,N
1628798435.4,286047000.5,N
1628798455.3,286047000.7,N
1628798475.1,286047000.3,N
1628798476.0,286047000.3,N
1628798495.8,286047001.2,N
1628798515.7,286047000.8,N
1628798535.5,286046998.7,N
1628798555.3,286047000.7,N
1628798575.2,286047001.1,N
1628798595.0,286047000.9,N
1628798595.9,286047000.9,N
1628798615.8,286047001.0,N
1628798635.6,286047000.6,N
1628798655.4,286047002.2,N
1628798675.3,286047002.1,N
1628798695.1,286047002.5,N
1628798715.8,286047002.2,N
1628798735.7,286047002.4,N
1628798755.5,286047002.4,N
1628798775.4,286047002.4,N
1628798795.2,286047002.5,N
1628798815.0,286047001.9,N
1628798815.9,286047001.9,N
1628798835.8,286047001.9,N
1628798855.6,286047002.0,N
1628798875.5,286047001.9,N
1628798895.3,286047001.5,N
1628798915.1,286047004.3,Y
1628798935.9,286047002.0,P
1628798955.7,286047002.4,P
1628798975.5,286047002.8,P
1628798995.4,286046999.7,N
1628799015.2,286047000.1,N
1628799035.1,286047002.3,N
1628799036.0,286047002.3,N
1628799055.8,286046999.8,N
1628799075.6,286047000.0,N
1628799095.5,286047002.7,N
1628799115.3,286047001.9,N
1628799135.2,286047000.0,N
1628799155.9,286047000.2,N
1628799175.7,286046999.9,N
1628799195.6,286047000.6,N
1628799215.4,286047000.4,N
1628799235.2,286047002.8,N
1628799255.1,286047002.4,N
1628799256.0,286047002.4,N
1628799275.8,286047000.7,N
1628799295.7,286046998.5,N
1628799315.5,286046998.3,N
1628799335.3,286047000.5,N
1628799355.2,286047000.0,N
1628799375.9,286047001.1,N
1628799395.7,286047001.0,N
1628799415.6,286046999.9,N
1628799435.4,286047000.5,N
1628799455.2,286047000.1,N
1628799475.1,286047000.0,N
1628799476.0,286047000.0,N
1628799495.8,286046999.9,N
1628799515.7,286047000.0,N
1628799535.5,286047000.0,N
1628799555.3,286047000.4,N
1628799575.2,286047000.2,N
1628799595.0,286047000.0,N
1628799595.9,286047000.0,N
1628799615.8,286047000.5,N
1628799635.6,286047000.8,N
1628799655.4,286046999.8,N
1628799675.3,286047002.8,Y
1628799695.1,286047000.1,P
1628799715.8,286047002.4,P
1628799735.7,286047000.4,N
1628799755.5,286047000.5,N
1628799775.4,286047000.6,N
1628799795.2,286047000.7,N
1628799815.0,286047000.8,N
1628799815.9,286047000.8,N
1628799835.8,286047001.2,N
1628799855.6,286046998.6,N
1628799875.4,286046998.6,N
1628799895.3,286046999.4,N
1628799915.1,286046998.8,N
1628799935.9,286047001.1,N
1628799955.7,286047000.3,N
1628799975.5,286047000.6,N
1628799995.4,286047000.9,N
1628800015.2,286047000.7,N
1628800035.0,286046998.2,N
1628800035.9,286046998.2,N
1628800055.8,286046999.0,N
1628800075.6,286046998.1,N
1628800095.5,286047000.8,N
1628800115.3,286046998.2,N
1628800135.1,286046998.7,N
1628800155.9,286046998.1,N
1628800175.7,286047000.9,N
1628800195.5,286047000.4,N
1628800215.4,286046999.8,N
1628800235.2,286047000.3,N
1628800255.1,286047000.2,N
1628800256.0,286047000.2,N
1628800275.8,286046999.9,N
1628800295.6,286047001.0,N
1628800315.5,286047002.3,N
1628800335.3,286047000.3,N
1628800355.1,286047000.9,N
1628800375.9,286047001.0,N
1628800395.7,286047001.0,N
1628800415.6,286047000.8,N
1628800435.4,286046998.3,N
1628800455.2,286046999.0,N
1628800475.1,286046999.4,N
1628800476.0,286046999.4,N
1628800495.8,286046998.8,N
1628800515.7,286046998.3,N
1628800535.5,286046998.3,N
1628800555.3,286046998.9,N
1628800575.2,286046998.3,N
1628800595.9,286046998.5,N
1628800615.7,286047000.7,N
1628800635.6,286047000.0,N
1628800655.4,286047002.8,N
1628800675.2,286047000.1,N
1628800695.1,286047002.4,N
1628800696.0,286047002.4,N
1628800715.8,286047002.7,N
1628800735.7,286046998.5,N
1628800755.5,286046996.8,N
1628800775.3,286046995.5,Y
1628800795.2,286046995.6,P
1628800815.0,286046996.3,N
1628800815.9,286046996.3,N
1628800835.8,286046993.6,Y
1628800855.6,286046997.4,P
1628800875.4,286046999.3,P
1628800895.3,286046998.3,N
1628800915.1,286047000.9,N
1628800935.8,286047002.8,N
1628800955.7,286047001.0,N
1628800975.5,286047000.7,N
1628800995.4,286047000.2,N
1628801015.2,286047002.1,N
1628801035.0,286047000.0,N
1628801035.9,286047000.0,N
1628801055.8,286047002.5,N
1628801075.6,286047002.3,N
1628801095.4,286047000.8,N
1628801115.3,286046999.0,N
1628801135.1,286047000.6,N
1628801185.9,286047000.5,E
1628801195.8,286047000.3,N
1628801215.6,286047001.1,P
1628801235.5,286046998.2,P
1628801255.3,286047001.2,N
1628801275.2,286047001.2,N
1628801295.9,286046999.8,N
1628801315.7,286046999.9,N
1628801335.6,286047001.3,N
1628801355.4,286047001.7,N
1628801375.2,286047002.1,N
1628801395.1,286047004.2,Y
1628801396.0,286047004.2,P
1628801415.8,286047002.0,N
1628801435.7,286047002.7,N
1628801455.5,286047000.2,N
1628801475.3,286047001.5,N
1628801495.2,286047001.6,N
1628801515.0,286047004.4,Y
1628801515.9,286047004.4,P
1628801535.8,286047002.4,N
1628801555.6,286047002.7,N
1628801575.4,286047002.6,N
1628801595.3,286047001.7,N
1628801615.1,286047001.3,N
1628801635.9,286047003.9,Y
1628801655.7,286047001.9,P
1628801675.5,286047002.4,P
1628801695.4,286047002.1,P
1628801715.2,286047002.7,Y
1628801735.0,286046998.7,P
1628801736.0,286046998.7,N
1628801755.8,286046998.8,N
1628801775.6,286046999.4,N
1628801795.5,286046999.3,N
1628801815.3,286046998.4,N
1628801835.1,286046999.1,N
1628801855.9,286046996.8,N
1628801875.7,286046997.0,N
1628801895.6,286046999.2,N
1628801915.4,286046999.1,N
1628801935.2,286046998.3,N
1628801955.1,286046998.2,N
1628801956.0,286046998.2,N
1628801975.8,286046998.2,N
1628801995.6,286046996.5,Y
